Weather History for Swansboro, NC

Change the Weather History Date:

Monday, March 25, 2013

  Actual Average (KNKT) Record (KNKT)
Temperature  
Mean Temperature 46 °F -  
Max Temperature 50 °F 64 °F 75 °F (2002)
Min Temperature 42 °F 43 °F 35 °F (2006)
Degree Days  
Heating Degree Days 19    
Moisture  
Dew Point 37 °F    
Average Humidity 73    
Maximum Humidity 93    
Minimum Humidity 42    
Precipitation  
Precipitation 0.00 in - - ()
Sea Level Pressure  
Sea Level Pressure 29.62 in    
Wind  
Wind Speed 7 mph (WNW)    
Max Wind Speed 16 mph    
Max Gust Speed 29 mph    
Visibility 9 miles    
Events      
Averages and records for this station are not official NWS values.
T = Trace of Precipitation, MM = Missing Value Source: NWS Daily Summary

Daily Weather History Graph

Daily Weather History Graph

Search for Another Location

Airport:

Trip Planner

Search our weather history database for the weather conditions in past years. The results will help you decide how hot, cold, wet, or windy it might be!

Date:

Astronomy

Mar. 25, 2013 Rise Set
Actual Time 7:04 AM EDT 7:23 PM EDT
Civil Twilight 6:39 AM EDT 7:49 PM EDT
Nautical Twilight 6:09 AM EDT 8:18 PM EDT
Astronomical Twilight 5:39 AM EDT 8:48 PM EDT
Moon 5:55 PM EDT (3/25) 5:43 AM EDT (3/25)
Length of Visible Light 13h 09m
Length of Day
12h 19m
Waxing Gibbous, 96% of the Moon is Illuminated
Mar 25
Waxing Gibbous
Mar 27
Full
Apr 3
Last Quarter
Apr 10
New
Apr 18
First Quarter

Hourly Weather History & Observations

Time (EDT) Temp. Windchill Dew Point Humidity Pressure Visibility Wind Dir Wind Speed Gust Speed Precip Events Conditions
12:57 AM 44.1 °F 42.5 °F 41.0 °F 89% 29.60 in 7.0 mi NE 3.5 mph - N/A   Overcast
1:57 AM 43.0 °F 38.8 °F 39.9 °F 89% 29.54 in 10.0 mi NE 6.9 mph - N/A   Overcast
2:57 AM 42.1 °F 40.2 °F 39.9 °F 92% 29.55 in 10.0 mi WNW 3.5 mph - N/A   Overcast
3:57 AM 43.0 °F - 39.9 °F 89% 29.56 in 10.0 mi Calm Calm - N/A   Overcast
4:16 AM 42.8 °F 41.1 °F 41.0 °F 93% 29.54 in 10.0 mi West 3.5 mph - N/A   Overcast
4:57 AM 44.1 °F 40.8 °F 41.0 °F 89% 29.57 in 5.0 mi West 5.8 mph - N/A   Overcast
5:06 AM 44.6 °F 42.2 °F 41.0 °F 87% 29.55 in 4.0 mi WNW 4.6 mph - N/A   Overcast
5:33 AM 44.6 °F 40.7 °F 41.0 °F 87% 29.55 in 2.0 mi West 6.9 mph - N/A   Overcast
5:57 AM 44.1 °F 39.5 °F 42.1 °F 93% 29.58 in 3.0 mi West 8.1 mph - N/A   Overcast
6:47 AM 42.8 °F 36.6 °F 41.0 °F 93% 29.57 in 10.0 mi West 11.5 mph 19.6 mph N/A   Overcast
6:57 AM 43.0 °F 37.7 °F 41.0 °F 93% 29.59 in 10.0 mi West 9.2 mph 18.4 mph N/A   Overcast
7:19 AM 42.8 °F 37.0 °F 39.2 °F 87% 29.58 in 10.0 mi West 10.4 mph 24.2 mph N/A   Overcast
7:57 AM 43.0 °F 39.5 °F 39.9 °F 89% 29.60 in 6.0 mi West 5.8 mph - 0.00 in   Light Drizzle
8:57 AM 45.0 °F 40.6 °F 41.0 °F 86% 29.60 in 10.0 mi WNW 8.1 mph - 0.00 in   Overcast
9:07 AM 44.6 °F 40.7 °F 41.0 °F 87% 29.59 in 10.0 mi West 6.9 mph - N/A   Overcast
9:57 AM 46.9 °F - 41.0 °F 80% 29.60 in 10.0 mi West 8.1 mph 16.1 mph N/A   Overcast
10:25 AM 46.4 °F 41.1 °F 41.0 °F 81% 29.59 in 10.0 mi West 11.5 mph 17.3 mph N/A   Overcast
10:57 AM 48.0 °F - 39.9 °F 74% 29.60 in 10.0 mi WNW 11.5 mph 20.7 mph N/A   Mostly Cloudy
11:57 AM 48.0 °F - 39.0 °F 71% 29.61 in 10.0 mi West 11.5 mph 18.4 mph N/A   Overcast
12:24 PM 48.2 °F - 39.2 °F 71% 29.59 in 10.0 mi WNW 8.1 mph 19.6 mph N/A   Overcast
12:45 PM 48.2 °F - 37.4 °F 66% 29.60 in 10.0 mi WNW 12.7 mph 25.3 mph N/A   Overcast
12:57 PM 50.0 °F - 37.9 °F 63% 29.61 in 10.0 mi West 11.5 mph 23.0 mph N/A   Mostly Cloudy
1:57 PM 48.9 °F - 36.0 °F 61% 29.61 in 10.0 mi WNW 12.7 mph 26.5 mph N/A   Mostly Cloudy
2:57 PM 48.0 °F - 33.1 °F 56% 29.62 in 10.0 mi West 13.8 mph 28.8 mph N/A   Mostly Cloudy
3:57 PM 50.0 °F - 32.0 °F 50% 29.61 in 10.0 mi WNW 13.8 mph 21.9 mph N/A   Mostly Cloudy
4:57 PM 48.9 °F - 30.9 °F 50% 29.63 in 10.0 mi West 15.0 mph 25.3 mph N/A   Overcast
5:57 PM 48.0 °F - 28.0 °F 46% 29.67 in 10.0 mi WNW 16.1 mph 23.0 mph N/A   Overcast
6:57 PM 48.0 °F - 28.0 °F 46% 29.70 in 10.0 mi NW 8.1 mph 19.6 mph N/A   Overcast
7:57 PM 46.9 °F - 25.0 °F 42% 29.74 in 10.0 mi West 9.2 mph 19.6 mph N/A   Overcast
8:57 PM 44.1 °F 42.5 °F 27.0 °F 51% 29.78 in 10.0 mi West 3.5 mph - N/A   Clear
9:57 PM 42.1 °F 40.2 °F 28.0 °F 58% 29.80 in 10.0 mi West 3.5 mph - N/A   Clear
10:57 PM 42.1 °F 40.2 °F 26.1 °F 53% 29.82 in 10.0 mi West 3.5 mph - N/A   Clear
11:57 PM 42.1 °F 39.2 °F 26.1 °F 53% 29.83 in 10.0 mi West 4.6 mph - N/A   Clear